Regional Weather Roundup
Issued by NWS Raleigh/Durham, NC

Home | Current Version | Previous Version | Text Only | Print | Product List | Glossary On
Versions: 1 2 3 4 5 6 7 8 9 10 11 12 13 14 15 16 17 18 19 20 21 22 23 24 25 26 27 28 29 30 31 32 33 34 35 36 37 38 39 40 41 42 43 44 45 46 47 48 49 50
000
ASUS42 KRAH 311110
RWRRAH
NORTH CAROLINA WEATHER ROUNDUP
NATIONAL WEATHER SERVICE RALEIGH NC
700 AM EDT FRI JUL 31 2015

NOTE: "FAIR" INDICATES FEW OR NO CLOUDS BELOW 12,000 FEET WITH NO
SIGNIFICANT WEATHER AND/OR OBSTRUCTIONS TO VISIBILITY.

NCZ001-053-055-056-065-067-311200-
WESTERN NORTH CAROLINA

CITY           SKY/WX    TMP DP  RH WIND       PRES   REMARKS
ASHEVILLE      PTCLDY    70  59  68 N10       30.08R
JEFFERSON      CLEAR     63  52  67 CALM      30.13R
MORGANTON      CLOUDY    69  67  94 CALM      30.08R
HICKORY        PTCLDY    70  61  73 CALM      30.02R
RUTHERFORDTON  CLEAR     73  63  71 NE3       30.02R
MOUNT AIRY     CLEAR     69  60  70 CALM      30.05R
BOONE          CLEAR     62  56  81 W9        30.13R
$$

NCZ021-022-025-041-071-084-088-311200-
CENTRAL NORTH CAROLINA

CITY           SKY/WX    TMP DP  RH WIND       PRES   REMARKS
CHARLOTTE      MOCLDY    75  60  59 N8        30.00R
GREENSBORO     PTCLDY    70  59  68 CALM      30.00R
WINSTON-SALEM  PTCLDY    71  59  65 NW6       30.02R
RALEIGH-DURHAM PTCLDY    73  63  70 VRB3      29.96R
FORT BRAGG     PTCLDY    76  64  66 N8        29.92R
FAYETTEVILLE   CLOUDY    77  65  66 N10       29.92R
BURLINGTON     CLEAR     72  61  68 NW5       29.98R
LAURINBURG     MOCLDY    78  62  57 N10       29.94R
$$

NCZ011-015-027-028-043-044-047-080-103-311200-
NORTHEASTERN NORTH CAROLINA

CITY           SKY/WX    TMP DP  RH WIND       PRES   REMARKS
ROCKY MT-WILSO CLEAR     76  74  93 N7        29.93R FOG
GREENVILLE     MOCLDY    77  77 100 N6        29.92R
WASHINGTON     MOCLDY    76  75  95 CALM      29.89S
ELIZABETH CITY LGT RAIN  75  73  93 N15       29.89S
MANTEO         PTCLDY    78  76  94 CALM      29.88S
CAPE HATTERAS  CLEAR     78  75  90 CALM      29.87R
$$

NCZ078-087-090-091-093-098-101-311200-
SOUTHEASTERN NORTH CAROLINA

CITY           SKY/WX    TMP DP  RH WIND       PRES   REMARKS
LUMBERTON      PTCLDY    76  68  76 N8        29.91R
GOLDSBORO      PTCLDY    78  75  91 N8        29.89R
KINSTON        MOCLDY    75  73  94 CALM      29.91R FOG
KENANSVILLE    CLEAR    N/A N/A N/A NW5       29.91R
NEW BERN       MOCLDY   N/A N/A N/A CALM      29.90R
CHERRY POINT   MOCLDY    76  74  93 W3        29.89R
BEAUFORT       CLEAR     79  78  97 N8        29.88R
JACKSONVILLE   MOCLDY    77  74  90 CALM      29.89R
WILMINGTON     MOCLDY    77  75  93 CALM      29.89R
$$




USA.gov is the U.S. government's official web portal to all federal, state and local government web resources and services.